Home > Time Zones > World Clock > Weather > Iran > Rasht > Past weeks

Flag for Iran Weather past 2 weeks in Rasht, Iran

Now
50 °F

Fog.


Feels Like: 48 °F
Forecast: 44 / 55 °F
Wind: 5 mph from West

Location: Rasht Airport

Current Time: Dec 19, 2014 at 11:35:23 AM

Latest Report: Dec 19, 2014 at 11:00 AM


Visibility: 2 mi

Pressure: 30.07 "Hg

Humidity: 100%

Dew point: 50 °F

Location of RashtLocation

Historic Weather in Rasht — Graph

°F

Rasht temperature yesterday

Maximum temperature yesterday: 59 °F (at 2:30 PM)
Minimum temperature yesterday: 41 °F (at 8:00 AM)
Average temperature yesterday: 50 °F

Past Weeks' High & Low Weather Summary

 TemperatureHumidityPressure
High59 °F (Dec 9, 1:30 PM)100% (Dec 5, 6:30 AM)30.63 "Hg (Dec 5, 6:30 AM)
Low37 °F (Dec 5, 6:30 AM)62% (Dec 4, 3:30 PM)30.04 "Hg (Dec 19, 6:30 AM)
Average50 °F90%30.31 "Hg
* Reported Dec 4 10:30 AM — Dec 19 10:30 AM, Rasht, Weather by CustomWeather, © 2014

Note: Actual official high and low records may vary slightly from our data, if they occured in-between our weather recording intervals... More about our weather records

Advertising

Rasht weather history for previous 24 hours

 ConditionsComfort  
Time TempWeatherWind HumidityBarometerVisibility
10:30 AM
Dec 19
50 °FFog.5 mph100%30.07 "Hg2 mi
10:00 AM48 °FFog.5 mph94%30.04 "Hg2 mi
9:30 AM48 °FFog.7 mph94%30.04 "Hg2 mi
9:00 AM46 °FFog.No wind93%30.04 "Hg2 mi
8:30 AM46 °FFog.No wind93%30.04 "Hg2 mi
8:00 AM45 °FFog.No wind100%30.04 "Hg1 mi
7:30 AM45 °FFog.No wind100%30.04 "Hg2 mi
7:00 AM45 °FFog.No wind100%30.04 "Hg2 mi
6:30 AM45 °FFog.No wind100%30.04 "Hg3 mi
8:00 PM
Dec 18
48 °FFog.5 mph94%30.09 "Hg2 mi
7:30 PM48 °FFog.No wind94%30.09 "Hg2 mi
7:00 PM50 °FFog.No wind94%30.07 "Hg2 mi
6:30 PM50 °FFog.No wind94%30.07 "Hg2 mi
6:00 PM50 °FFog.No wind94%30.07 "Hg2 mi
5:30 PM52 °FFog.No wind88%30.07 "Hg2 mi
5:00 PM52 °FFog.No wind88%30.07 "Hg2 mi
4:30 PM54 °FPartly sunny.No wind82%30.07 "Hg2 mi
4:00 PM55 °FPartly sunny.No wind77%30.07 "Hg2 mi
3:30 PM55 °FOvercast.No wind77%30.07 "Hg2 mi
3:00 PMN/AHaze.No windN/AN/A2 mi
2:30 PM59 °FPartly sunny.No wind72%30.09 "Hg2 mi
2:00 PM54 °FPartly sunny.No wind77%30.12 "Hg2 mi
1:30 PM54 °FPartly sunny.No wind77%30.12 "Hg2 mi
1:00 PM54 °FPartly sunny.No wind77%30.12 "Hg1 mi
12:30 PM54 °FPartly sunny.No wind77%30.12 "Hg1 mi
12:00 PM54 °FFog.No wind88%30.15 "Hg1 mi
11:30 AM55 °FPartly sunny.No wind77%30.15 "Hg1 mi
11:00 AM50 °FFog.No wind94%30.21 "Hg1 mi
Weather by CustomWeather, © 2014

See weather overviewHow to use our weather pages